Beaumont / Port Arthur, TX

4:06 PM CDT on October 14, 2019 (GMT -0500)
Beaumont Municipal

Weather History for KBMT - September, 2019

Change the Weather History Date:

Tuesday, September 17, 2019

  Actual Average (WUND) Record (WUND)
Temperature  
Mean Temperature 80 °F -  
Max Temperature 86 °F - - (-1)
Min Temperature 74 °F - - (-1)
Cooling Degree Days 15    
Growing Degree Days 30 (Base 50)    
Moisture  
Dew Point 75 °F    
Average Humidity 89    
Maximum Humidity 93    
Minimum Humidity 70    
Precipitation  
Precipitation 0.00 in - - ()
Sea Level Pressure  
Sea Level Pressure 29.92 in    
Wind  
Wind Speed 7 mph ()    
Max Wind Speed 14 mph    
Max Gust Speed 21 mph    
Visibility 9.0 miles    
Events Rain , Thunderstorm    
Averages and records for this station are not official NWS values.
T = Trace of Precipitation, MM = Missing Value Source: Averaged Metar Reports

Daily Weather History Graph

Daily Weather History Graph

Search for Another Location

Airport or City:

Astronomy

Sep. 17, 2019 Rise Set
Actual Time 7:02 AM CDT 7:19 PM CDT
Civil Twilight 6:38 AM CDT 7:43 PM CDT
Nautical Twilight 6:10 AM CDT 8:11 PM CDT
Astronomical Twilight 5:42 AM CDT 8:40 PM CDT
Moon 9:36 PM CDT (9/17) 9:56 AM CDT (9/17)
Length of Visible Light 13h 05m
Length of Day
12h 17m
Waning Gibbous, 89% of the Moon is Illuminated
Sep 17
Waning Gibbous
Sep 21
Last Quarter
Sep 28
New
Oct 5
First Quarter
Oct 13
Full

Hourly Weather History & Observations

Time (CDT) Temp. Heat Index Dew Point Humidity Pressure Visibility Wind Dir Wind Speed Gust Speed Precip Events Conditions
12:15 AM 78.3 °F - 74.3 °F 88% 29.93 in 10.0 mi East 5.8 mph - N/A   Mostly Cloudy
12:35 AM 78.3 °F - 74.3 °F 88% 29.93 in 10.0 mi ENE 4.6 mph - N/A   Mostly Cloudy
12:55 AM 78.3 °F - 74.3 °F 88% 29.93 in 10.0 mi East 3.5 mph - N/A   Scattered Clouds
1:15 AM 78.3 °F - 74.3 °F 88% 29.92 in 10.0 mi ENE 5.8 mph - N/A   Scattered Clouds
1:35 AM 78.1 °F - 74.3 °F 88% 29.92 in 10.0 mi East 5.8 mph - N/A   Scattered Clouds
1:55 AM 78.3 °F - 73.8 °F 86% 29.92 in 10.0 mi East 5.8 mph - N/A   Clear
2:15 AM 77.9 °F - 73.9 °F 88% 29.92 in 10.0 mi NE 4.6 mph - N/A   Mostly Cloudy
2:35 AM 77.7 °F - 74.3 °F 89% 29.92 in 10.0 mi ENE 4.6 mph - N/A   Mostly Cloudy
2:55 AM 77.7 °F - 74.3 °F 89% 29.91 in 10.0 mi NE 3.5 mph - N/A   Mostly Cloudy
3:15 AM 77.5 °F - 74.3 °F 90% 29.91 in 10.0 mi ENE 4.6 mph - N/A   Overcast
3:35 AM 77.5 °F - 74.3 °F 90% 29.91 in 10.0 mi ENE 4.6 mph - N/A   Mostly Cloudy
3:55 AM 77.5 °F - 74.3 °F 90% 29.90 in 10.0 mi ENE 5.8 mph - N/A   Scattered Clouds
4:15 AM 77.5 °F - 74.5 °F 90% 29.90 in 10.0 mi NNE 4.6 mph - N/A   Scattered Clouds
4:35 AM 77.2 °F - 74.5 °F 91% 29.90 in 10.0 mi NE 5.8 mph - N/A   Mostly Cloudy
4:55 AM 77.9 °F - 74.8 °F 90% 29.90 in 10.0 mi ENE 4.6 mph - N/A   Overcast
5:15 AM 78.1 °F - 75.0 °F 90% 29.91 in 10.0 mi ENE 5.8 mph - N/A   Mostly Cloudy
5:35 AM 78.4 °F - 75.2 °F 90% 29.90 in 10.0 mi ENE 9.2 mph - N/A   Overcast
5:55 AM 78.4 °F - 74.7 °F 88% 29.91 in 10.0 mi ENE 5.8 mph - N/A   Mostly Cloudy
6:15 AM 78.8 °F - 74.8 °F 88% 29.92 in 10.0 mi ESE 4.6 mph - N/A Thunderstorm Thunderstorm
6:35 AM 76.6 °F - 73.4 °F 90% 29.94 in 2.5 mi SE 10.4 mph - N/A Rain , Thunderstorm Heavy Thunderstorms and Rain
6:55 AM 76.3 °F - 73.4 °F 91% 29.94 in 4.0 mi ESE 8.1 mph - N/A Rain Heavy Rain
7:15 AM 76.1 °F - 72.9 °F 90% 29.94 in 10.0 mi East 8.1 mph - N/A Rain Light Rain
7:35 AM 75.4 °F - 72.5 °F 91% 29.95 in 3.0 mi ESE 13.8 mph 18.4 mph N/A Rain Heavy Rain
7:55 AM 75.2 °F - 72.1 °F 90% 29.95 in 7.0 mi ESE 12.7 mph 17.3 mph N/A Rain Light Rain
8:15 AM 74.8 °F - 72.1 °F 91% 29.96 in 3.0 mi ESE 11.5 mph 18.4 mph N/A Rain Heavy Rain
8:35 AM 74.7 °F - 72.0 °F 91% 29.96 in 7.0 mi ESE 10.4 mph - N/A Rain Rain
8:55 AM 75.2 °F - 72.5 °F 91% 29.95 in 10.0 mi East 8.1 mph - N/A Rain Rain
9:15 AM 75.6 °F - 73.4 °F 93% 29.95 in 7.0 mi East 8.1 mph - N/A   Drizzle
9:35 AM 76.1 °F - 73.6 °F 92% 29.96 in 10.0 mi East 6.9 mph - N/A Rain Light Rain
9:55 AM 76.5 °F - 73.9 °F 92% 29.96 in 10.0 mi ESE 9.2 mph - N/A Rain Light Rain
10:35 AM 77.0 °F - 74.5 °F 92% 29.97 in 2.5 mi SE 4.6 mph - N/A Rain Heavy Rain
10:55 AM 77.7 °F - 75.2 °F 92% 29.97 in 10.0 mi ESE 6.9 mph - N/A Rain Light Rain
11:15 AM 78.1 °F - 75.4 °F 91% 29.97 in 10.0 mi East 4.6 mph - N/A Rain Rain
11:35 AM 78.1 °F - 75.4 °F 91% 29.97 in 10.0 mi ESE 10.4 mph - N/A   Light Drizzle
11:55 AM 78.6 °F - 75.6 °F 90% 29.96 in 10.0 mi East 10.4 mph - N/A   Scattered Clouds
12:15 PM 79.0 °F - 75.4 °F 89% 29.96 in 10.0 mi ESE 9.2 mph - N/A   Mostly Cloudy
12:35 PM 80.1 °F 85.2 °F 75.4 °F 86% 29.96 in 10.0 mi ESE 8.1 mph - N/A   Mostly Cloudy
12:55 PM 81.5 °F 88.0 °F 75.6 °F 82% 29.95 in 10.0 mi ESE 9.2 mph - N/A   Mostly Cloudy
1:15 PM 84.0 °F 92.6 °F 75.6 °F 76% 29.94 in 10.0 mi ESE 8.1 mph - N/A   Overcast
1:35 PM 86.2 °F 95.5 °F 75.2 °F 70% 29.94 in 10.0 mi SE 9.2 mph 19.6 mph N/A   Overcast
1:55 PM 84.2 °F 91.6 °F 74.3 °F 72% 29.93 in 10.0 mi East 9.2 mph 17.3 mph N/A   Overcast
2:15 PM 75.6 °F - 72.7 °F 91% 29.94 in 1.2 mi ESE 10.4 mph 20.7 mph N/A Rain , Thunderstorm Light Thunderstorms and Rain
2:35 PM 75.9 °F - 73.4 °F 92% 29.93 in 10.0 mi ESE 10.4 mph - N/A Rain Light Rain
2:55 PM 76.8 °F - 74.1 °F 91% 29.92 in 10.0 mi ESE 9.2 mph - N/A   Scattered Clouds
3:15 PM 77.5 °F - 74.7 °F 91% 29.91 in 10.0 mi ESE 8.1 mph - N/A Rain Light Rain
3:35 PM 78.6 °F - 75.6 °F 90% 29.91 in 10.0 mi ESE 9.2 mph - N/A Rain Rain
3:55 PM 78.4 °F - 75.6 °F 91% 29.90 in 10.0 mi East 10.4 mph - N/A Rain Light Rain
4:15 PM 78.4 °F - 75.2 °F 90% 29.89 in 10.0 mi ESE 10.4 mph - N/A   Light Drizzle
4:35 PM 78.3 °F - 74.7 °F 89% 29.89 in 10.0 mi ESE 11.5 mph 18.4 mph N/A   Scattered Clouds
4:55 PM 79.2 °F - 74.5 °F 86% 29.89 in 10.0 mi East 9.2 mph 18.4 mph N/A   Mostly Cloudy
5:15 PM 79.7 °F - 74.7 °F 84% 29.89 in 10.0 mi East 10.4 mph 16.1 mph N/A   Overcast
5:35 PM 79.7 °F - 74.5 °F 84% 29.89 in 10.0 mi ESE 10.4 mph - N/A   Overcast
5:55 PM 79.3 °F - 74.3 °F 84% 29.88 in 10.0 mi East 10.4 mph 16.1 mph N/A   Light Drizzle
6:15 PM 79.3 °F - 74.5 °F 85% 29.88 in 10.0 mi East 8.1 mph - N/A   Mostly Cloudy
6:35 PM 79.2 °F - 75.0 °F 87% 29.89 in 10.0 mi SE 5.8 mph - N/A   Light Drizzle
6:55 PM 79.2 °F - 75.4 °F 88% 29.89 in 10.0 mi Calm Calm - N/A Rain Light Rain
7:15 PM 79.3 °F - 75.6 °F 88% 29.89 in 10.0 mi East 9.2 mph - N/A Rain Light Rain
7:35 PM 79.7 °F - 76.1 °F 89% 29.89 in 10.0 mi East 8.1 mph - N/A   Overcast
7:55 PM 79.2 °F - 76.1 °F 90% 29.89 in 7.0 mi East 9.2 mph - N/A Rain Rain
8:15 PM 78.8 °F - 75.7 °F 90% 29.88 in 5.0 mi East 8.1 mph - N/A Rain Light Rain
8:35 PM 78.1 °F - 75.6 °F 92% 29.90 in 2.5 mi SE 10.4 mph - N/A Rain Rain
8:55 PM 77.7 °F - 75.2 °F 92% 29.89 in 7.0 mi East 8.1 mph - N/A Rain Light Rain
9:15 PM 77.9 °F - 75.2 °F 91% 29.90 in 10.0 mi East 8.1 mph - N/A   Overcast
9:35 PM 77.9 °F - 75.2 °F 91% 29.90 in 10.0 mi East 9.2 mph - N/A   Mostly Cloudy
9:55 PM 77.9 °F - 75.2 °F 91% 29.90 in 10.0 mi ESE 9.2 mph - N/A   Overcast
10:15 PM 78.3 °F - 75.6 °F 91% 29.89 in 10.0 mi East 9.2 mph - N/A   Overcast
10:35 PM 78.8 °F - 76.1 °F 91% 29.90 in 10.0 mi ESE 8.1 mph - N/A   Overcast
10:55 PM 78.8 °F - 76.1 °F 91% 29.89 in 7.0 mi East 6.9 mph - N/A Rain Heavy Rain
11:15 PM 79.0 °F - 76.1 °F 91% 29.89 in 10.0 mi East 8.1 mph - N/A   Overcast
11:35 PM 78.6 °F - 75.4 °F 90% 29.89 in 10.0 mi ESE 9.2 mph 17.3 mph N/A Rain Rain
11:55 PM 78.1 °F - 75.2 °F 91% 29.88 in 10.0 mi ESE 5.8 mph - N/A   Overcast